Location: Bucquoy
(50.1391°N, 2.7097°E)
Time: 03:45:33
(UTC+00:00)

Meteor 2-20 - Pass Details

Date: 06 May 2021
Orbit: 938 x 959 km, 82.5° (Epoch: 22 June)

Event Time Altitude Azimuth Distance (km) Brightness Sun altitude
Exits shadow 02:04:48 25° 201° (SSW) 1,847 5.4 -16.6°
Maximum altitude 02:08:37 72° 282° (WNW) 1,008 4.5 -16.3°
Drops below altitude 10° 02:14:49 10° 7° (N) 2,704 7.8 -15.7°
Sets 02:17:20 0° 10° (N) 3,652 8.7 -15.4°
